Weather History for Jefferson, NC

Change the Weather History Date:

Thursday, February 24, 2011

  Actual Average Record
Temperature  
Mean Temperature 37 °F -  
Max Temperature 41 °F 47 °F 68 °F (2012)
Min Temperature 33 °F 27 °F 8 °F (1967)
Degree Days  
Heating Degree Days 28    
Moisture  
Dew Point 35 °F    
Average Humidity 90    
Maximum Humidity 100    
Minimum Humidity 75    
Precipitation  
Precipitation 0.68 in - - ()
Sea Level Pressure  
Sea Level Pressure 30.10 in    
Wind  
Wind Speed 3 mph (SSE)    
Max Wind Speed 7 mph    
Max Gust Speed -    
Visibility 5 miles    
Events Rain    
Averages and records for this station are not official NWS values.
T = Trace of Precipitation, MM = Missing Value Source: NWS Daily Summary

Daily Weather History Graph

Daily Weather History Graph

Search for Another Location

Airport:

Trip Planner

Search our weather history database for the weather conditions in past years. The results will help you decide how hot, cold, wet, or windy it might be!

Date:

Astronomy

Feb. 24, 2011 Rise Set
Actual Time 7:03 AM EST 6:15 PM EST
Civil Twilight 6:37 AM EST 6:41 PM EST
Nautical Twilight 6:07 AM EST 7:11 PM EST
Astronomical Twilight 5:37 AM EST 7:41 PM EST
Moon 12:52 AM EST (2/24) 10:51 AM EST (2/24)
Length of Visible Light 12h 04m
Length of Day
11h 12m
Waning Gibbous, 53% of the Moon is Illuminated
Feb 24
Waning Gibbous
Feb 24
Last Quarter
Mar 4
New
Mar 12
First Quarter
Mar 19
Full

Hourly Weather History & Observations

Time (EST) Temp. Windchill Dew Point Humidity Pressure Visibility Wind Dir Wind Speed Gust Speed Precip Events Conditions
12:03 AM 37.4 °F 34.9 °F 32.0 °F 81% 30.20 in 10.0 mi South 3.5 mph - N/A   Mostly Cloudy
12:23 AM 37.4 °F 33.8 °F 32.0 °F 81% 30.20 in 10.0 mi South 4.6 mph - N/A   Overcast
12:43 AM 37.4 °F 34.9 °F 32.0 °F 81% 30.20 in 10.0 mi SSE 3.5 mph - N/A   Mostly Cloudy
1:03 AM 37.4 °F 34.9 °F 30.2 °F 75% 30.19 in 10.0 mi SSE 3.5 mph - N/A   Scattered Clouds
1:23 AM 37.4 °F 34.9 °F 30.2 °F 75% 30.18 in 10.0 mi South 3.5 mph - N/A   Clear
1:43 AM 37.4 °F - 30.2 °F 75% 30.18 in 10.0 mi Calm Calm - N/A   Clear
2:03 AM 37.4 °F - 30.2 °F 75% 30.18 in 10.0 mi Calm Calm - N/A   Clear
2:23 AM 37.4 °F - 30.2 °F 75% 30.18 in 10.0 mi Calm Calm - N/A   Clear
2:43 AM 33.8 °F - 30.2 °F 87% 30.17 in 10.0 mi Calm Calm - N/A   Clear
3:43 AM 33.8 °F 29.6 °F 30.2 °F 87% 30.14 in 10.0 mi SSE 4.6 mph - N/A   Clear
4:03 AM 33.8 °F 30.8 °F 30.2 °F 87% 30.15 in 10.0 mi SSE 3.5 mph - N/A   Clear
4:23 AM 33.8 °F 30.8 °F 30.2 °F 87% 30.13 in 10.0 mi SSE 3.5 mph - N/A   Clear
4:43 AM 33.8 °F 28.6 °F 30.2 °F 87% 30.13 in 10.0 mi SE 5.8 mph - N/A   Clear
5:03 AM 35.6 °F 32.8 °F 30.2 °F 81% 30.13 in 10.0 mi SSE 3.5 mph - N/A   Clear
5:23 AM 35.6 °F 30.7 °F 30.2 °F 81% 30.13 in 10.0 mi SE 5.8 mph - N/A   Clear
5:43 AM 35.6 °F 31.7 °F 32.0 °F 87% 30.12 in 10.0 mi SSE 4.6 mph - N/A   Clear
6:03 AM 35.6 °F 30.7 °F 32.0 °F 87% 30.12 in 10.0 mi SSE 5.8 mph - N/A   Clear
6:23 AM 37.4 °F 32.1 °F 32.0 °F 81% 30.12 in 10.0 mi SE 6.9 mph - N/A   Clear
6:43 AM 37.4 °F 34.9 °F 32.0 °F 81% 30.14 in 10.0 mi South 3.5 mph - N/A   Scattered Clouds
7:03 AM 37.4 °F 34.9 °F 32.0 °F 81% 30.14 in 10.0 mi South 3.5 mph - N/A   Overcast
7:23 AM 37.4 °F 34.9 °F 32.0 °F 81% 30.13 in 5.0 mi SSE 3.5 mph - 0.01 in Rain Rain
7:43 AM 37.4 °F - 33.8 °F 87% 30.15 in 3.0 mi Calm Calm - 0.05 in Rain Rain
8:03 AM 37.4 °F - 35.6 °F 93% 30.15 in 2.0 mi Calm Calm - 0.01 in Rain Rain
8:23 AM 37.4 °F - 35.6 °F 93% 30.14 in 2.0 mi Calm Calm - 0.04 in Rain Rain
8:43 AM 37.4 °F - 35.6 °F 93% 30.15 in 1.2 mi Calm Calm - 0.07 in Rain Rain
9:05 AM 37.4 °F - 35.6 °F 93% 30.15 in 0.8 mi Calm Calm - 0.02 in Rain Rain
9:23 AM 37.4 °F - 35.6 °F 93% 30.14 in 0.5 mi Calm Calm - 0.04 in Rain Light Rain
9:43 AM 37.4 °F - 35.6 °F 93% 30.14 in 0.2 mi Calm Calm - 0.07 in Rain Rain
10:03 AM 37.4 °F 34.9 °F 37.4 °F 100% 30.13 in 0.5 mi SSE 3.5 mph - 0.01 in Rain Light Rain
10:23 AM 37.4 °F - 37.4 °F 100% 30.14 in 1.0 mi Calm Calm - 0.04 in Rain Rain
10:43 AM 37.4 °F - 37.4 °F 100% 30.13 in 0.5 mi Calm Calm - 0.07 in Rain Rain
11:43 AM 39.2 °F 35.9 °F 37.4 °F 93% 30.13 in 0.2 mi SSE 4.6 mph - 0.06 in Rain Light Rain
12:03 PM 39.2 °F 35.9 °F 39.2 °F 100% 30.12 in 0.5 mi SSE 4.6 mph - 0.01 in Rain Rain
12:23 PM 41.0 °F 39.0 °F 39.2 °F 93% 30.11 in 1.0 mi SE 3.5 mph - 0.06 in Rain Rain
12:43 PM 41.0 °F 37.1 °F 39.2 °F 93% 30.11 in 1.5 mi SSE 5.8 mph - 0.11 in Rain Rain
1:03 PM 41.0 °F 39.0 °F 39.2 °F 93% 30.10 in 2.5 mi South 3.5 mph - 0.02 in Rain Rain
1:23 PM 41.0 °F - 39.2 °F 93% 30.09 in 4.0 mi Calm Calm - 0.06 in Rain Rain
1:43 PM 39.2 °F 37.0 °F 39.2 °F 100% 30.08 in 1.5 mi East 3.5 mph - 0.10 in Rain Rain
2:23 PM 41.0 °F 39.0 °F 39.2 °F 93% 30.05 in 2.5 mi SE 3.5 mph - 0.03 in Rain Rain
2:43 PM 39.2 °F - 39.2 °F 100% 30.04 in 2.5 mi Calm Calm - 0.06 in Rain Light Rain
3:05 PM 39.2 °F - 39.2 °F 100% 30.03 in 2.5 mi Calm Calm - 0.01 in Rain Light Rain
3:23 PM 39.2 °F 37.0 °F 39.2 °F 100% 30.02 in 3.0 mi SSE 3.5 mph - 0.02 in Rain Rain
3:45 PM 39.2 °F 37.0 °F 39.2 °F 100% 30.01 in 2.5 mi SE 3.5 mph - 0.04 in Rain Light Rain
4:03 PM 39.2 °F - 39.2 °F 100% 30.01 in 2.0 mi Calm Calm - 0.01 in Rain Light Rain
4:23 PM 39.2 °F 37.0 °F 37.4 °F 93% 30.00 in 1.0 mi SSE 3.5 mph - 0.03 in Rain Rain
4:43 PM 39.2 °F 35.9 °F 37.4 °F 93% 29.99 in 1.8 mi SSE 4.6 mph - 0.05 in Rain Light Rain
5:03 PM 39.2 °F 35.9 °F 37.4 °F 93% 29.99 in 3.0 mi SSE 4.6 mph - N/A Rain Rain
5:24 PM 39.2 °F 37.0 °F 37.4 °F 93% 29.98 in 2.0 mi SE 3.5 mph - N/A   Overcast
5:43 PM 39.2 °F 37.0 °F 37.4 °F 93% 29.98 in 1.2 mi SSE 3.5 mph - N/A   Drizzle
6:03 PM 37.4 °F 34.9 °F 37.4 °F 100% 29.97 in 1.2 mi SSE 3.5 mph - N/A   Light Drizzle
6:23 PM 39.2 °F 35.9 °F 37.4 °F 93% 29.97 in 2.5 mi SSE 4.6 mph - N/A   Overcast
6:43 PM 39.2 °F 35.9 °F 37.4 °F 93% 29.97 in 5.0 mi South 4.6 mph - N/A   Overcast
7:03 PM 39.2 °F 35.0 °F 39.2 °F 100% 29.96 in 7.0 mi SSE 5.8 mph - N/A   Overcast
7:23 PM 41.0 °F 37.1 °F 39.2 °F 93% 29.95 in 7.0 mi SSE 5.8 mph - N/A   Overcast
7:43 PM 41.0 °F 35.8 °F 39.2 °F 93% 29.93 in 10.0 mi SSE 8.1 mph - N/A   Overcast
8:03 PM 42.8 °F 40.1 °F 39.2 °F 87% 29.93 in 7.0 mi South 4.6 mph - N/A   Overcast
8:24 PM 42.8 °F 39.3 °F 41.0 °F 93% 29.91 in 7.0 mi SSE 5.8 mph - N/A   Overcast
8:43 PM 44.6 °F 41.4 °F 42.8 °F 93% 29.91 in 5.0 mi SSE 5.8 mph 16.1 mph N/A   Overcast
9:03 PM 44.6 °F 40.2 °F 42.8 °F 93% 29.90 in 7.0 mi South 8.1 mph - N/A   Overcast
9:23 PM 46.4 °F 42.9 °F 42.8 °F 87% 29.89 in 5.0 mi South 6.9 mph 20.7 mph N/A   Overcast
10:03 PM 46.4 °F 43.5 °F 44.6 °F 93% 29.90 in 5.0 mi South 5.8 mph - N/A   Overcast
10:23 PM 46.4 °F 42.4 °F 44.6 °F 93% 29.88 in 5.0 mi South 8.1 mph - N/A   Overcast
10:45 PM 48.2 °F - 44.6 °F 87% 29.87 in 5.0 mi SSE 9.2 mph 18.4 mph N/A   Overcast
11:03 PM 48.2 °F - 46.4 °F 93% 29.85 in 4.0 mi SSE 8.1 mph 26.5 mph N/A   Overcast
11:23 PM 48.2 °F - 46.4 °F 93% 29.83 in 4.0 mi South 11.5 mph 27.6 mph N/A   Overcast
11:43 PM 50.0 °F - 48.2 °F 94% 29.81 in 5.0 mi South 12.7 mph 27.6 mph N/A   Overcast